STARLINK-1305, 45377

Orbit data source: Space-Track

STARLINK-1305, 45377 is a payload satellite owned by SpaceX/Seattle (US) in LEO that was launched on Wed, 18 Mar 2020 UTC via an FALCON 9 launch vehicle from the Air Force Eastern Test Range (AFETR). Payload-class satellites include a variety of spacecraft equipped with specific instruments for various scientific and technological missions. These include communications satellites like Starlink; space stations such as the ISS; scientific satellites like the Hubble; Earth observation satellites from companies like Planet Labs, Umbra, and HawkEye 360; GPS; miniature CubeSats for education and research; and military/defense satellites.

Loading next visibility...
Identifier
45377, 2020-019T
Orbit
LEO
Country
Flag of USUS
Related business
Manufacturer
SpaceX/Seattle
Mission
Partially operational Commercial Communications
Bus & Motor
STARLINK, Unknown motor
Mass
260 kg wet, ~248 kg dry
Launch date (UTC)
2020-03-18 (6 years ago)
Launch vehicle
FALCON 9
Launch site
Air Force Eastern Test Range (AFETR)
Object type
Payload
Rocket body
Debris
Shape & HBR
Box + 1 Pan, 10.1 m
Radar Cross Section
13.562 m², Large (>1 m²)

Expand to show TLE details & history
Last TLE update: 21 hours ago

TLE from 21 hours ago
0 STARLINK-1305
1 45377U 20019T   26036.01339700  .00099884  00000-0  19519-2 0  9993
2 45377  53.0482 289.0027 0006475  71.8035 288.3676 15.46656670325156
Epoch: 2026-02-05T00:19Z
TLE epoch observation values (Epoch: 2026-02-05T00:19:17.500Z)
Latitude
-0.00003°
Longitude
149.00804°
Altitude
426.023 km
Speed
7.658 km/s
True Right ascension
19h 16m 00s
True Declination
0° 00' 00"
Sunlit
Object was in daylight at epoch
Visualization orbit readout
Latitude
Unknown
Longitude
Unknown
Altitude
Unknown
Speed
Unknown
Apparent Right ascension
Unknown
Apparent Declination
Unknown
Sunlit
N/A
Visualization observer readout
Local Sidereal Time
23:10:34
Azimuth
Unknown
Elevation
Unknown
Doppler factor
Unknown
Orbital elements
Apogee altitude
431.197 km
Perigee altitude
422.385 km
Semi-major axis
6,804.928 km
Eccentricity
0.00065
Inclination
53.0482°
RAAN
289.0027°
Arg. of periapsis
71.8035°
True anomaly
288.29716°
Mean anomaly
288.3676°
Eccentric anomaly
288.33238°
Mean motion
3.86641 °/min
Orbital period
93.11 mins
BSTAR
0.0019519
Loading maneuver chart data...
Computing Atmospheric mass density...
Loading historical data...
Loading historical data...
Loading historical data...
Loading historical data...
Loading historical data...
Loading historical data...
Loading historical data...

Documentation

Showing up to 5 results
|